Flag for Switzerland Weather past 2 weeks in Altdorf, Uri, Switzerland

Now
34 °F

Overcast.


Feels Like: 34 °F
Forecast: 20 / 38 °F
Wind: 2 mph from West

Location: Altdorf

Current Time: Jan 26, 2015 at 5:34:58 PM

Latest Report: Jan 26, 2015 at 4:00 PM


Visibility: 13 mi

Pressure: 30.31 "Hg

Humidity: 58%

Dew point: 21 °F

Location of AltdorfLocation

Historic Weather in Altdorf — Graph

°F

Altdorf temperature yesterday

Maximum temperature yesterday: 38 °F (at 2:00 PM)
Minimum temperature yesterday: 28 °F (at 10:00 PM)
Average temperature yesterday: 33 °F

Past Weeks' High & Low Weather Summary

 TemperatureHumidityPressure
High58 °F (Jan 16, 11:00 AM)95% (Jan 14, 10:00 PM)30.54 "Hg (Jan 14, 10:00 PM)
Low24 °F (Jan 26, 6:00 AM)23% (Jan 13, 2:00 PM)29.62 "Hg (Jan 16, 3:00 PM)
Average38 °F75%30.08 "Hg
* Reported Jan 11 4:00 PM — Jan 26 4:00 PM, Altdorf, Weather by CustomWeather, © 2014

Note: Actual official high and low records may vary slightly from our data, if they occured in-between our weather recording intervals... More about our weather records

Advertising

Altdorf weather history for previous 24 hours

 ConditionsComfort  
Time TempWeatherWind HumidityBarometerVisibility
4:00 PM
Jan 26
34 °FOvercast.2 mph58%30.31 "Hg12 mi
3:00 PM33 °FChilly.No wind58%30.32 "HgN/A
2:00 PM33 °FChilly.No wind58%30.34 "HgN/A
1:00 PM32 °FOvercast.1 mph60%30.37 "Hg12 mi
12:00 PM32 °FChilly.2 mph61%30.39 "HgN/A
11:00 AM31 °FChilly.1 mph63%30.42 "HgN/A
10:00 AM29 °FOvercast.2 mph68%30.43 "Hg12 mi
9:00 AM28 °FChilly.2 mph71%30.44 "HgN/A
8:00 AM26 °FChilly.3 mph73%30.45 "HgN/A
7:00 AM26 °FPassing clouds.2 mph74%30.46 "Hg12 mi
6:00 AM24 °FCold.5 mph81%30.46 "HgN/A
5:00 AM25 °FCold.2 mph80%30.46 "HgN/A
4:00 AM25 °FPassing clouds.3 mph77%30.46 "Hg14 mi
3:00 AM25 °FChilly.3 mph82%30.46 "HgN/A
2:00 AM27 °FChilly.3 mph74%30.45 "HgN/A
1:00 AM26 °FPassing clouds.5 mph77%30.46 "Hg14 mi
12:00 AM28 °FChilly.1 mph75%30.47 "HgN/A
11:00 PM
Jan 25
28 °FChilly.6 mph74%30.48 "HgN/A
10:00 PM28 °FPassing clouds.2 mph81%30.49 "Hg14 mi
9:00 PM29 °FChilly.3 mph79%30.48 "HgN/A
8:00 PM32 °FChilly.3 mph66%30.46 "HgN/A
7:00 PM32 °FPassing clouds.3 mph65%30.45 "Hg14 mi
6:00 PM34 °FChilly.7 mph67%30.44 "HgN/A
5:00 PM35 °FChilly.10 mph62%30.42 "HgN/A
Weather by CustomWeather, © 2014

See weather overviewHow to use our weather pages